Weather History for KCSV - October, 2012

Change the Weather History Date:

Wednesday, October 3, 2012

  Actual Average Record
Temperature  
Mean Temperature 61 °F 61 °F  
Max Temperature 69 °F 72 °F 84 °F (1986)
Min Temperature 52 °F 50 °F 26 °F (1974)
Degree Days  
Heating Degree Days 4    
Month to date heating degree days 7  
Since 1 July heating degree days 55  
Cooling Degree Days 0    
Month to date cooling degree days 0  
Year to date cooling degree days 1156  
Growing Degree Days 11 (Base 50)    
Moisture  
Dew Point 53 °F    
Average Humidity 75    
Maximum Humidity 93    
Minimum Humidity 56    
Precipitation  
Precipitation 0.00 in 0.10 in 2.60 in (1962)
Month to date precipitation 1.38 0.32  
Year to date precipitation 38.32 42.32  
Sea Level Pressure  
Sea Level Pressure 30.11 in    
Wind  
Wind Speed 1 mph (SSW)    
Max Wind Speed 9 mph    
Max Gust Speed 12 mph    
Visibility 6 miles    
Events Fog    
T = Trace of Precipitation, MM = Missing Value Source: NWS Daily Summary

Daily Weather History Graph

Daily Weather History Graph

Search for Another Location

Airport or City:

Trip Planner

Search our weather history database for the weather conditions in past years. The results will help you decide how hot, cold, wet, or windy it might be!

Date:

Astronomy

Oct. 03, 2012 Rise Set
Actual Time 6:37 AM CDT 6:20 PM CDT
Civil Twilight 6:11 AM CDT 6:45 PM CDT
Nautical Twilight 5:42 AM CDT 7:15 PM CDT
Astronomical Twilight 5:12 AM CDT 7:45 PM CDT
Moon 8:20 PM CDT (10/3) 9:52 AM CDT (10/3)
Length of Visible Light 12h 34m
Length of Day
11h 43m
Waning Gibbous, 88% of the Moon is Illuminated
Oct 3
Waning Gibbous
Oct 8
Last Quarter
Oct 15
New
Oct 21
First Quarter
Oct 29
Full

Hourly Weather History & Observations

Time (CDT) Temp. Dew Point Humidity Pressure Visibility Wind Dir Wind Speed Gust Speed Precip Events Conditions
12:02 AM 59.0 °F 55.4 °F 88% 30.03 in 10.0 mi Calm Calm - N/A   Overcast
12:53 AM 59.0 °F 55.0 °F 87% 29.99 in 9.0 mi Calm Calm - N/A   Overcast
1:53 AM 57.0 °F 55.0 °F 93% 30.02 in 6.0 mi Calm Calm - N/A   Overcast
2:53 AM 57.9 °F 55.0 °F 90% 30.03 in 8.0 mi Calm Calm - N/A   Overcast
3:50 AM 57.2 °F 55.4 °F 94% 30.06 in 8.0 mi Calm Calm - N/A   Overcast
3:53 AM 57.9 °F 55.0 °F 90% 30.03 in 8.0 mi Calm Calm - N/A   Overcast
4:29 AM 57.2 °F 53.6 °F 88% 30.07 in 5.0 mi Calm Calm - N/A   Scattered Clouds
4:53 AM 55.9 °F 54.0 °F 93% 30.05 in 4.0 mi Calm Calm - N/A   Clear
5:14 AM 55.4 °F 53.6 °F 94% 30.09 in 1.8 mi Calm Calm - N/A   Clear
5:33 AM 55.4 °F 51.8 °F 88% 30.10 in 0.5 mi Calm Calm - N/A Fog Fog
5:53 AM 54.0 °F 52.0 °F 93% 30.07 in 0.5 mi Calm Calm - N/A Fog Fog
6:03 AM 55.4 °F 51.8 °F 88% 30.10 in 0.2 mi Calm Calm - N/A Fog Fog
6:14 AM 55.4 °F 51.8 °F 88% 30.10 in 0.2 mi Calm Calm - N/A Fog Fog
6:29 AM 55.4 °F 51.8 °F 88% 30.11 in 0.2 mi Calm Calm - 0.01 in Fog Fog
6:53 AM 55.0 °F 52.0 °F 89% 30.10 in 0.2 mi Calm Calm - 0.01 in Fog Fog
7:53 AM 55.9 °F 52.0 °F 87% 30.12 in 0.2 mi Calm Calm - N/A Fog Fog
8:31 AM 57.2 °F 55.4 °F 94% 30.15 in 0.5 mi Calm Calm - N/A Fog Fog
8:36 AM 57.2 °F 55.4 °F 94% 30.15 in 1.0 mi Calm Calm - N/A   Overcast
8:43 AM 57.2 °F 53.6 °F 88% 30.16 in 3.0 mi South 3.5 mph - N/A   Overcast
8:53 AM 57.9 °F 54.0 °F 87% 30.13 in 5.0 mi Calm Calm - N/A   Overcast
9:21 AM 60.8 °F 55.4 °F 82% 30.17 in 10.0 mi Calm Calm - N/A   Scattered Clouds
9:53 AM 63.0 °F 55.0 °F 75% 30.14 in 10.0 mi Variable 3.5 mph - N/A   Clear
10:53 AM 64.9 °F 53.1 °F 65% 30.14 in 10.0 mi SSW 3.5 mph - N/A   Clear
11:53 AM 66.0 °F 51.1 °F 59% 30.13 in 10.0 mi Variable 3.5 mph - N/A   Clear
12:53 PM 66.0 °F 50.0 °F 56% 30.12 in 10.0 mi WSW 4.6 mph - N/A   Clear
1:53 PM 66.9 °F 51.1 °F 57% 30.11 in 10.0 mi Calm Calm - N/A   Clear
2:53 PM 69.1 °F 53.1 °F 57% 30.10 in 10.0 mi Variable 4.6 mph - N/A   Partly Cloudy
3:53 PM 66.9 °F 53.1 °F 61% 30.11 in 10.0 mi South 3.5 mph - N/A   Clear
4:53 PM 66.9 °F 53.1 °F 61% 30.12 in 10.0 mi Variable 3.5 mph - N/A   Scattered Clouds
5:53 PM 64.9 °F 54.0 °F 68% 30.13 in 10.0 mi Calm Calm - N/A   Clear
6:53 PM 59.0 °F 55.9 °F 90% 30.14 in 10.0 mi Calm Calm - N/A   Clear
7:53 PM 57.0 °F 54.0 °F 89% 30.16 in 10.0 mi Calm Calm - N/A   Clear
8:53 PM 55.9 °F 53.1 °F 90% 30.19 in 7.0 mi Calm Calm - N/A   Clear
10:53 PM 53.1 °F 51.1 °F 93% 30.20 in 7.0 mi Calm Calm - N/A   Clear
11:53 PM 53.1 °F 51.1 °F 93% 30.21 in 10.0 mi Calm Calm - N/A   Clear